Zurück zum Katalog

FENGYUN 1C DEB

AktivSSO
NORAD 32136·DEBRIS·🇨🇳 China

Gestartet May 10, 1999 von Taiyuan Satellite Launch Center

Loading…

Nächste Überflüge (nächste 24 Stunden)

TLE

AktuellSource: Space-Track

Epoche: Sep 13, 2026, 17:24 UTC

1 32136U 99025CSE 26256.72510819  .00001059  00000-0  34892-3 0  9998
2 32136  98.2797 249.9156 0067526  67.7386 293.0945 14.38798339690437

Verfolge FENGYUN 1C DEB in Echtzeit mit AllMySat

Download on the App Store